Terminal Aerodrome Forecast
Issued by NWS

Home | Current Version | Previous Version | Graphics & Text | Print | Product List | Glossary On
Versions: 1 2 3 4 5 6 7 8 9 10 11 12 13 14 15
000
FTUS42 KMHX 250900 AAA
TAFOAJ
TAF AMD
KOAJ 250900Z 2509/2606 VRB03KT P6SM BKN040
      TEMPO 2510/2512 3SM BR
     FM251200 VRB02KT P6SM FEW250
     FM251500 14005KT P6SM SCT050
      AMD LTD TO CLD VIS AND WIND=

USA.gov is the U.S. government's official web portal to all federal, state and local government web resources and services.